This demonstration page uses our WeatherBlox Daily Observations layout. Learn more.

Left ArrowRight Arrow

34.74481, -87.66753

Hourly Observations for May 5, 2021

Temp ( °F °C ) Dew Point ( °F °C ) Humidity (%) Winds ( mph kmh ) Pressure ( in mb ) Visibility ( mi km ) Precip ( " mm )
12:13 am 00:13 Cloudy 65 18.3 60 15.6 84 84 W 6 9 29.85 1011 10 16 0.00 0.00
12:53 am 00:53 Cloudy 65 18.3 60 15.6 84 84 W 6 9 29.86 1011 10 16 0.00 0.00
1:42 am 01:42 Cloudy 65 18.3 60 15.6 84 84 W 5 7 29.87 1012 10 16 0.00 0.00
1:53 am 01:53 Cloudy 65 18.3 59 15 81 81 W 5 7 29.87 1011 10 16 0.00 0.00
2:48 am 02:48 Cloudy 64 18 61 16 88 88 WSW 8 13 29.87 1012 10 16 0.00 0.00
2:53 am 02:53 Cloudy 65 18.3 60 15.6 84 84 WSW 8 13 29.86 1011 10 16 0.00 0.00
3:53 am 03:53 Mostly Cloudy 65 18.3 60 15.6 84 84 W 9 15 29.87 1012 10 16 0.00 0.00
4:00 am 04:00 Cloudy 65 18.3 60 15.6 84 84 W 8 13 29.88 1012 10 16 0.00 0.00
4:11 am 04:11 Cloudy 65 18.3 60 15.6 84 84 W 8 13 29.88 1012 10 16 0.00 0.00
4:53 am 04:53 Cloudy 65 18.3 59 15 81 81 NW 10 17 29.91 1013 10 16 0.00 0.00
5:28 am 05:28 Cloudy 63 17.2 57 13.9 81 81 NW 12 19 29.93 1014 10 16 0.00 0.00
5:53 am 05:53 Cloudy 62 16.7 56 13.3 80 80 NNW 9 15 29.94 1014 10 16 0.00 0.00
6:08 am 06:08 Cloudy 62 16.7 56 13.3 80 80 NNW 7 11 29.96 1015 10 16 0.00 0.00
6:34 am 06:34 Cloudy 62 16.7 56 13.3 80 80 NNW 5 7 29.97 1015 10 16 0.00 0.00
6:53 am 06:53 Cloudy 62 16.7 56 13.3 80 80 NNW 3 6 29.98 1015 10 16 0.00 0.00
7:51 am 07:51 Cloudy with Haze 63 17 55 13 77 77 NW 6 9 30.02 1017 6 10 0.00 0.00
7:53 am 07:53 Cloudy with Haze 62 16.7 56 13.3 80 80 NW 5 7 30.02 1017 6 10 0.00 0.00
8:50 am 08:50 Cloudy with Haze 63 17 57 14 83 83 NNW 5 7 30.03 1017 3 4 0.00 0.00
8:53 am 08:53 Cloudy with Haze 62 16.7 57 13.9 84 84 NW 6 9 30.03 1017 4 6 0.00 0.00
9:07 am 09:07 Cloudy 63 17.2 57 13.9 81 81 NNW 5 7 30.03 1017 10 16 0.00 0.00
9:14 am 09:14 Cloudy 64 17.8 57 13.9 78 78 NNW 7 11 30.03 1017 10 16 0.00 0.00
9:53 am 09:53 Cloudy 65 18.3 55 12.8 70 70 N 5 7 30.04 1017 10 16 0.00 0.00
10:03 am 10:03 Cloudy 66 18.9 56 13.3 70 70 VRB 7 11 30.04 1017 10 16 0.00 0.00
10:53 am 10:53 Cloudy 66 18.9 55 12.8 68 68 NW 9 15 30.06 1018 10 16 0.00 0.00
11:31 am 11:31 Partly Cloudy 69 20.6 56 13.3 63 63 N 7 11 30.07 1018 10 16 0.00 0.00
11:49 am 11:49 Mostly Cloudy 68 20 55 13 64 64 N 6 9 30.07 1018 10 16 0.00 0.00
11:53 am 11:53 Mostly Cloudy 68 20 55 12.8 63 63 NNW 6 9 30.07 1018 10 16 0.00 0.00
12:53 pm 12:53 Mostly Cloudy 69 20.6 54 12.2 59 59 NNW 6 9 30.07 1018 10 16 0.00 0.00
1:01 pm 13:01 Mostly Cloudy 69 20.6 55 12.8 61 61 N 5 7 30.07 1018 10 16 0.00 0.00
1:53 pm 13:53 Mostly Cloudy 70 21.1 53 11.7 55 55 VRB 6 9 30.06 1018 10 16 0.00 0.00
2:53 pm 14:53 Mostly Cloudy 73 22.8 52 11.1 48 48 NW 7 11 30.05 1018 10 16 0.00 0.00
3:53 pm 15:53 Mostly Sunny 73 22.8 50 10 44 44 NW 9 15 30.05 1018 10 16 0.00 0.00
4:53 pm 16:53 Mostly Cloudy 71 21.7 49 9.4 46 46 NNW 6 9 30.05 1018 10 16 0.00 0.00
5:53 pm 17:53 Mostly Sunny 71 21.7 47 8.3 42 42 N 8 13 30.05 1018 10 16 0.00 0.00
6:53 pm 18:53 Mostly Sunny 68 20 46 7.8 45 45 N 7 11 30.06 1018 10 16 0.00 0.00
7:53 pm 19:53 Clear 64 17.8 48 8.9 56 56 N 5 7 30.09 1019 10 16 0.00 0.00
8:53 pm 20:53 Clear 62 16.7 46 7.8 56 56 N 3 6 30.11 1020 10 16 0.00 0.00
9:53 pm 21:53 Clear 61 16.1 46 7.8 58 58 N 3 6 30.12 1020 10 16 0.00 0.00
10:53 pm 22:53 Clear 59 15 46 7.8 62 62 VRB 5 7 30.13 1020 10 16 0.00 0.00
11:53 pm 23:53 Clear 58 14.4 46 7.8 65 65 VRB 7 11 30.13 1020 10 16 0.00 0.00

Powered by AerisWeather